"Pseudo-MPEC" for P10OMck

Created 2019 Jun 15 19:08:23 UT using Find_Orb

Click here for an explanation of pseudo-MPECs

 
 Astrometry: 
     P10OMck  C2019 04 05m96i6!\Astrometry'e;6V!^6cBrrNJ.Yp8$=[SjOl[r]6TdVJUXF51
     P10OMck  C2019 04 05Z0pJs8BEflSEXZ'1$0W_(nv\3R`hd@RZjKMfJ9XXmO#K/^63nHsPF51
     P10OMck  C2019 04 05pIg)UMKsH#Sl(YStkeA@Bm)']=O_jZVmG9HNeuvBNiK/X)mwJh?qF51
     P10OMck  C2019 04 14q/4PnXdJK1M_)H6%QY*`[C(9GpY?hY(VcviM!n^?vxD4'Om2i(N2F51
     P10OMck  C2019 04 140BZ[!S#Z53x1Kfq0_GbaEvCuC/d%7QiYe$4r'o-;Grqr_B\DiD`5F51
     P10OMck  C2019 04 14t]dqFNv]Y@qDD+LTIA!Blt[50YXUsG)V1!:Q:sqepZB%^=Z/.;x?F51
     P10OMck  C2019 05 07t1NnXW$DX[^dOW[:OQddMiHj$(T2C,Qq=%eP7DtI%X3TiIHsT2](F51
     P10OMck  C2019 05 07V+LZgZl0gx[*W!4nE.$@+2dTZ]/FtkY=6Fx)0?[k#8l8-kF%oA0[F51
     P10OMck  C2019 05 07+e;BN?u6Uuh8+-sPe1C#r4#w^Db?)M5KU+AN#d27-redacted;JvF51
     P10OMck  C2019 05 30nwMYcJ\58:gv8OpBV_G1ji_G_#ZQ0^M%\T^y$u4=5!m'P=I`KqFnF51
     P10OMck  C2019 05 300nShN^xclick2fWH@pGyk\Z7c;h'e(]jT*^dRkRZP+Fpoj2piW,_F51
     P10OMck  C2019 05 30kDI-fPLngHqg#Es]hereOX*EuS6-#%?0?0Th=trCB__k1924_+LhF51
     P10OMck  C2019 06 07d049=J@)?PHP^jG2EUV*gx2U7q[%[k9N.=O)!nYIxrn^0E9@)9a'F51
     P10OMck  C2019 06 07K=rwxxXDka,/650^I3]A'7%l\s2e2NG8k?5C=GAc.Nforrxc\]2oF51
     P10OMck  C2019 06 07t-Q1gwm`c2L73\S-J/!3qO_p9AS%kM3B8s+`\qfN++08ljb!lPsAF51
     P10OMck pC2019 06 085C41v:#Mx;Mqg-K-[V8FH+61`(;YJP^;RR=/%o$,@$MN*[c:s/cXL01
     P10OMck KC2019 06 08FN?(iR,s/E5aw,K#VOcv.7$8rhREQ;XQiwZ2)f,8euTc[%@7T)4bL01
     P10OMck pC2019 06 08@lTl4-8fpqFGQX*rw]9QO0@fdJT'DG[k[B)!ESskT$#^PB[h5fhdL01
     P10OMck KC2019 06 08v/+;3_v1`1BT_wS8JDFOG_YC@GYa6w7y(,fB(w(nT$9U,SRUT75xH21
     P10OMck KC2019 06 08261sL.d%kqk3SC;Gw@I6vXB1u2explanationff!x7)Kk6C\-5o`H21
     P10OMck KC2019 06 08Xe.U_1E5jh7U=#A)$9(BS4hiWJPFtkX_ygxd33.UJdr(_!,y]uk6H21
     P10OMck  C2019 06 08c4HhenbVM!/:yMM2\(6FT+0%^G'Z8rw'@eF4'V;(?V[l]m(@^NN4F52
     P10OMck  C2019 06 08^[r,c,x[^%!IKiQ[+3;omRur$!W8_8dEUqx6U#kX)5cd@we5F2gbF52
     P10OMck  C2019 06 08-:=e;N#T@hv_xfnUXL8G6#ggB3.CO;]F'xt^SoL-ke_W3:i`-6P0F52
     P10OMck  C2019 06 08Wq,3^:Wg/:4jmb)W/auFZb:#Gn,1K#q_a1pOu0=?W%H17Xr9-Mo3F52
     P10OMck HC2019 06 09Qr4E$FJ\=cC)YLXjiw!oF3`$+ye$MZkX,%#eK'GCkDJq8n`5p/5]691
     P10OMck HC2019 06 09omhIXFvm7Tyq1v8es)dS.[ku[L_J/.RWPRSwjaw;Lo7?51Hyd0Z0691
     P10OMck HC2019 06 093/k_n;I#3!4SB;w)l80b*Ow;QvYb0iOs44hP7E=8Y5F!QC_C6o_@691
     P10OMck  C2019 06 11x65O2H7v8fpLU8Vl7N_Jc+:(e8r4wl2h[a*SQB?!HN9%APSZe1GEF52
     P10OMck  C2019 06 11I@3fyhH;CRnNtgOBB!7rTqLK6-\],_W@9D?(l4%D(SrJ\:f$pWP$F52
     P10OMck  C2019 06 11NVOdce!JJYjd#cFIx%mZ2?*n3JL)'./X7Mv#OF'bjE?-kh+J5@\TF52
     P10OMck  C2019 06 11$*g)Vqd2%tEp!As*A!l1F1ly$p4x-h70+H'p4`DYVyT**u+v,+b%F52

Station data:
(691) Steward Observatory, Kitt Peak - Spacewatch  (N31.962174 W111.600327)
   US/Arizona.  Observer J. V. Scotti. 0.9-m f/3 reflector + CCD.
(F51) Pan-STARRS 1, Haleakala  (N20.707235 W156.255910)  US/Hawaii.
   Observers N. Primak, A. Schultz, S. Watters, J. Thiel, T. Goggia. Measurer
   PS1 Science Consortium. 1.8-m Ritchey-Chrétien + CCD.
(F52) Pan-STARRS 2, Haleakala  (N20.707384 W156.255910)  US/Hawaii. 1.8-m
   Ritchey-Chrétien + CCD.
(H21) Astronomical Research Observatory, Westfield  (N39.483057 W87.968270)
   US/Illinois. 0.76-m f/3.0 astrograph + CCD.
(L01) Višnjan Observatory, Tičan  (N45.290900 E13.749300)  Croatia.
   Observers K. Korlević, E. Pettarin. Measurer E. Pettarin. 1.0-m f/2.9
   reflector + CCD.

Orbital elements:  P10OMck
   Perihelion 2020 Jun 22.390483 +/- 0.0611 TT =  9:22:17 (JD 2459022.890483)
Epoch 2019 Jun 11.0 TT = JDT 2458645.5   Earth MOID: 0.7883   AutoNEOCP
M 218.19411826 +/- 0.022            (J2000 ecliptic)
n   0.37575373 +/- 5.97e-6          Peri.  263.25512 +/- 0.015
a   1.90195621 +/- 2.01e-5          Node   136.70391 +/- 0.0018
e   0.1179594 +/- 2.59e-5           Incl.   23.02654 +/- 0.00032
P   2.62/958.06d           H 18.7   G  0.15   U  4.7  
q 1.67760252 +/- 5.27e-5    Q 2.12630991 +/- 5.4e-5
From 32 observations 2019 Apr. 5-June 11; mean residual 0".30
Residuals in arcseconds: 
190405 F51  .07+  .11+    190530 F51  .08+  .12+    190608 F52  .19-  .08-    
190405 F51  .16+  .07+    190607 F51  .04-  .08+    190608 F52  .19-  .10-    
190405 F51  .43+  .09+    190607 F51  .05-  .01-    190608 F52  .08+  .14-    
190414 F51  .10-  .34-    190607 F51  .16+  .11+    190609 691  .54+  .43+    
190414 F51  .63-  .24-    190608 L01  .85+  .01+    190609 691  .47+  .20+    
190414 F51  .04+  .04-    190608 L01  .19+  .24-    190609 691  .75-  .47+    
190507 F51  .07+  .18+    190608 L01  .06-  1.1-    190611 F52  .22-  .17-    
190507 F51  .20-  .09+    190608 H21  .40-  .13-    190611 F52  .16-  .33-    
190507 F51  .08-  .08+    190608 H21  .25-  .19+    190611 F52  .04-  .09-    
190530 F51  .10+  .15+    190608 H21  .25+  .62+    190611 F52  .33-  .41-    
190530 F51  .09+  .11+    190608 F52  .01+  .12+    

Ephemerides (geocentric):
Date (UTC) HH   RA              Dec         delta   r     elong  mag " sig PA
---- -- -- --  -------------   -----------  ------ ------ -----  --- ---- ---
2019 06 15 19  16 33 18.252   +15 50 31.91  1.2139 2.0834 138.1 21.7 .144  47
2019 06 15 20  16 33 15.504   +15 50 10.15  1.2140 2.0834 138.1 21.7 .145  47
2019 06 15 21  16 33 12.758   +15 49 48.35  1.2140 2.0834 138.1 21.7 .146  47
2019 06 15 22  16 33 10.014   +15 49 26.50  1.2141 2.0833 138.0 21.7 .147  47
2019 06 15 23  16 33 07.271   +15 49 04.61  1.2142 2.0833 138.0 21.7 .147  46
2019 06 16 00  16 33 04.530   +15 48 42.67  1.2142 2.0833 138.0 21.7 .148  46
2019 06 16 01  16 33 01.791   +15 48 20.68  1.2143 2.0832 138.0 21.7 .149  46
2019 06 16 02  16 32 59.054   +15 47 58.65  1.2144 2.0832 138.0 21.7 .150  46
2019 06 16 03  16 32 56.318   +15 47 36.57  1.2145 2.0832 138.0 21.7 .151  46
2019 06 16 04  16 32 53.584   +15 47 14.45  1.2145 2.0831 138.0 21.7 .151  46
2019 06 16 05  16 32 50.852   +15 46 52.28  1.2146 2.0831 137.9 21.7 .152  46
2019 06 16 06  16 32 48.122   +15 46 30.07  1.2147 2.0831 137.9 21.7 .153  46
2019 06 16 07  16 32 45.394   +15 46 07.81  1.2148 2.0830 137.9 21.7 .154  46
2019 06 16 08  16 32 42.667   +15 45 45.51  1.2148 2.0830 137.9 21.7 .155  46
2019 06 16 09  16 32 39.943   +15 45 23.16  1.2149 2.0830 137.9 21.7 .156  46
2019 06 16 10  16 32 37.220   +15 45 00.76  1.2150 2.0829 137.9 21.7 .156  46
2019 06 16 11  16 32 34.499   +15 44 38.32  1.2151 2.0829 137.8 21.7 .157  46
2019 06 16 12  16 32 31.779   +15 44 15.84  1.2151 2.0829 137.8 21.7 .158  46
2019 06 16 13  16 32 29.062   +15 43 53.30  1.2152 2.0828 137.8 21.7 .159  46
2019 06 16 14  16 32 26.346   +15 43 30.73  1.2153 2.0828 137.8 21.7 .160  46
2019 06 16 15  16 32 23.633   +15 43 08.11  1.2154 2.0828 137.8 21.7 .161  46
2019 06 16 16  16 32 20.921   +15 42 45.44  1.2155 2.0827 137.8 21.7 .162  46
2019 06 16 17  16 32 18.211   +15 42 22.73  1.2155 2.0827 137.8 21.7 .162  46
2019 06 16 18  16 32 15.503   +15 41 59.97  1.2156 2.0827 137.7 21.7 .163  46
2019 06 16 19  16 32 12.796   +15 41 37.17  1.2157 2.0826 137.7 21.7 .164  46
2019 06 16 20  16 32 10.092   +15 41 14.32  1.2158 2.0826 137.7 21.7 .165  46
2019 06 16 21  16 32 07.389   +15 40 51.43  1.2159 2.0826 137.7 21.7 .166  46
2019 06 16 22  16 32 04.689   +15 40 28.49  1.2159 2.0825 137.7 21.7 .167  46
2019 06 16 23  16 32 01.990   +15 40 05.51  1.2160 2.0825 137.7 21.7 .167  46
2019 06 17 00  16 31 59.293   +15 39 42.48  1.2161 2.0825 137.6 21.7 .168  46
2019 06 17 01  16 31 56.598   +15 39 19.41  1.2162 2.0824 137.6 21.7 .169  46
2019 06 17 02  16 31 53.905   +15 38 56.29  1.2163 2.0824 137.6 21.7 .170  46
2019 06 17 03  16 31 51.214   +15 38 33.13  1.2163 2.0824 137.6 21.7 .171  46
2019 06 17 04  16 31 48.524   +15 38 09.92  1.2164 2.0823 137.6 21.7 .172  46
2019 06 17 05  16 31 45.837   +15 37 46.67  1.2165 2.0823 137.6 21.7 .172  46
2019 06 17 06  16 31 43.151   +15 37 23.37  1.2166 2.0823 137.5 21.7 .173  46
2019 06 17 07  16 31 40.468   +15 37 00.03  1.2167 2.0822 137.5 21.7 .174  46
2019 06 17 08  16 31 37.786   +15 36 36.64  1.2167 2.0822 137.5 21.7 .175  46
2019 06 17 09  16 31 35.107   +15 36 13.21  1.2168 2.0822 137.5 21.7 .176  46
2019 06 17 10  16 31 32.429   +15 35 49.74  1.2169 2.0821 137.5 21.7 .177  46
2019 06 17 11  16 31 29.753   +15 35 26.22  1.2170 2.0821 137.5 21.7 .178  46
2019 06 17 12  16 31 27.079   +15 35 02.65  1.2171 2.0821 137.4 21.7 .178  46
2019 06 17 13  16 31 24.408   +15 34 39.05  1.2172 2.0820 137.4 21.7 .179  46
2019 06 17 14  16 31 21.738   +15 34 15.39  1.2173 2.0820 137.4 21.7 .180  46
2019 06 17 15  16 31 19.070   +15 33 51.70  1.2173 2.0820 137.4 21.7 .181  46
2019 06 17 16  16 31 16.404   +15 33 27.95  1.2174 2.0819 137.4 21.7 .182  46
2019 06 17 17  16 31 13.740   +15 33 04.17  1.2175 2.0819 137.4 21.7 .183  46
2019 06 17 18  16 31 11.078   +15 32 40.34  1.2176 2.0819 137.3 21.7 .184  46